Tracking 22287 objects as of 27-Jan-2021
HD Live streaming from Space Station
objects crossing your sky now

STARLINK-1771

Track STARLINK-1771 now!
10-day predictions
STARLINK-1771 is classified as:


NORAD ID: 46384
Int'l Code: 2020-062BM
Perigee: 553.1 km
Apogee: 555.2 km
Inclination: 53.1 °
Period: 95.6 minutes
Semi major axis: 6925 km
RCS: Unknown
Launch date: September 3, 2020
Source: United States (US)
Launch site: AIR FORCE EASTERN TEST RANGE (AFETR)
aabbcc
Your satellite tracking list
Your tracking list is empty




NASA's NSSDC Master Catalog

Two Line Element Set (TLE):
1 46384U 20062BM  21026.91667824 -.00084600  00000-0 -57196-2 0  9999
2 46384  53.0570 121.3624 0001542  59.7768 108.7628 15.06457505  1753
Source of the keplerian elements: AFSPC